Index of /20260419/WXO-DD/model_rdps/10km/12/067
Name Last modified Size Description
Parent Directory -
20260419T12Z_MSC_RDPS_AbsoluteVorticity_IsbL-0250_RLatLon0.09_PT067H.grib2 2026-04-19 15:00 610K
20260419T12Z_MSC_RDPS_AbsoluteVorticity_IsbL-0500_RLatLon0.09_PT067H.grib2 2026-04-19 15:00 567K
20260419T12Z_MSC_RDPS_AbsoluteVorticity_IsbL-0700_RLatLon0.09_PT067H.grib2 2026-04-19 15:00 615K
20260419T12Z_MSC_RDPS_AbsoluteVorticity_IsbL-0850_RLatLon0.09_PT067H.grib2 2026-04-19 15:00 787K
20260419T12Z_MSC_RDPS_AirTemp_AGL-120m_RLatLon0.09_PT067H.grib2 2026-04-19 15:00 379K
20260419T12Z_MSC_RDPS_AirTemp_AGL-2m_RLatLon0.09_PT067H.grib2 2026-04-19 15:00 634K
20260419T12Z_MSC_RDPS_AirTemp_AGL-40m_RLatLon0.09_PT067H.grib2 2026-04-19 15:00 397K
20260419T12Z_MSC_RDPS_AirTemp_AGL-80m_RLatLon0.09_PT067H.grib2 2026-04-19 15:00 387K
20260419T12Z_MSC_RDPS_AirTemp_IsbL-0001_RLatLon0.09_PT067H.grib2 2026-04-19 15:00 223K
20260419T12Z_MSC_RDPS_AirTemp_IsbL-0005_RLatLon0.09_PT067H.grib2 2026-04-19 15:00 332K
20260419T12Z_MSC_RDPS_AirTemp_IsbL-0010_RLatLon0.09_PT067H.grib2 2026-04-19 15:00 307K
20260419T12Z_MSC_RDPS_AirTemp_IsbL-0020_RLatLon0.09_PT067H.grib2 2026-04-19 15:00 327K
20260419T12Z_MSC_RDPS_AirTemp_IsbL-0030_RLatLon0.09_PT067H.grib2 2026-04-19 15:00 353K
20260419T12Z_MSC_RDPS_AirTemp_IsbL-0050_RLatLon0.09_PT067H.grib2 2026-04-19 15:00 336K
20260419T12Z_MSC_RDPS_AirTemp_IsbL-0100_RLatLon0.09_PT067H.grib2 2026-04-19 15:00 440K
20260419T12Z_MSC_RDPS_AirTemp_IsbL-0150_RLatLon0.09_PT067H.grib2 2026-04-19 15:00 430K
20260419T12Z_MSC_RDPS_AirTemp_IsbL-0175_RLatLon0.09_PT067H.grib2 2026-04-19 15:00 425K
20260419T12Z_MSC_RDPS_AirTemp_IsbL-0200_RLatLon0.09_PT067H.grib2 2026-04-19 15:00 427K
20260419T12Z_MSC_RDPS_AirTemp_IsbL-0225_RLatLon0.09_PT067H.grib2 2026-04-19 15:00 424K
20260419T12Z_MSC_RDPS_AirTemp_IsbL-0250_RLatLon0.09_PT067H.grib2 2026-04-19 15:00 426K
20260419T12Z_MSC_RDPS_AirTemp_IsbL-0275_RLatLon0.09_PT067H.grib2 2026-04-19 15:00 404K
20260419T12Z_MSC_RDPS_AirTemp_IsbL-0300_RLatLon0.09_PT067H.grib2 2026-04-19 15:00 409K
20260419T12Z_MSC_RDPS_AirTemp_IsbL-0350_RLatLon0.09_PT067H.grib2 2026-04-19 15:00 426K
20260419T12Z_MSC_RDPS_AirTemp_IsbL-0400_RLatLon0.09_PT067H.grib2 2026-04-19 15:00 429K
20260419T12Z_MSC_RDPS_AirTemp_IsbL-0450_RLatLon0.09_PT067H.grib2 2026-04-19 15:00 404K
20260419T12Z_MSC_RDPS_AirTemp_IsbL-0500_RLatLon0.09_PT067H.grib2 2026-04-19 15:00 417K
20260419T12Z_MSC_RDPS_AirTemp_IsbL-0550_RLatLon0.09_PT067H.grib2 2026-04-19 15:00 438K
20260419T12Z_MSC_RDPS_AirTemp_IsbL-0600_RLatLon0.09_PT067H.grib2 2026-04-19 15:00 455K
20260419T12Z_MSC_RDPS_AirTemp_IsbL-0650_RLatLon0.09_PT067H.grib2 2026-04-19 15:00 468K
20260419T12Z_MSC_RDPS_AirTemp_IsbL-0700_RLatLon0.09_PT067H.grib2 2026-04-19 15:00 492K
20260419T12Z_MSC_RDPS_AirTemp_IsbL-0750_RLatLon0.09_PT067H.grib2 2026-04-19 15:00 531K
20260419T12Z_MSC_RDPS_AirTemp_IsbL-0800_RLatLon0.09_PT067H.grib2 2026-04-19 15:00 588K
20260419T12Z_MSC_RDPS_AirTemp_IsbL-0850_RLatLon0.09_PT067H.grib2 2026-04-19 15:00 508K
20260419T12Z_MSC_RDPS_AirTemp_IsbL-0875_RLatLon0.09_PT067H.grib2 2026-04-19 15:00 513K
20260419T12Z_MSC_RDPS_AirTemp_IsbL-0900_RLatLon0.09_PT067H.grib2 2026-04-19 15:00 517K
20260419T12Z_MSC_RDPS_AirTemp_IsbL-0925_RLatLon0.09_PT067H.grib2 2026-04-19 15:00 513K
20260419T12Z_MSC_RDPS_AirTemp_IsbL-0950_RLatLon0.09_PT067H.grib2 2026-04-19 15:00 521K
20260419T12Z_MSC_RDPS_AirTemp_IsbL-0970_RLatLon0.09_PT067H.grib2 2026-04-19 15:00 523K
20260419T12Z_MSC_RDPS_AirTemp_IsbL-0985_RLatLon0.09_PT067H.grib2 2026-04-19 15:00 515K
20260419T12Z_MSC_RDPS_AirTemp_IsbL-1000_RLatLon0.09_PT067H.grib2 2026-04-19 15:00 497K
20260419T12Z_MSC_RDPS_AirTemp_IsbL-1015_RLatLon0.09_PT067H.grib2 2026-04-19 15:00 493K
20260419T12Z_MSC_RDPS_Albedo_Sfc_RLatLon0.09_PT067H.grib2 2026-04-19 15:00 165K
20260419T12Z_MSC_RDPS_CAPE_Sfc_RLatLon0.09_PT067H.grib2 2026-04-19 15:00 1.6M
20260419T12Z_MSC_RDPS_CIN_Sfc_RLatLon0.09_PT067H.grib2 2026-04-19 15:00 1.1M
20260419T12Z_MSC_RDPS_CloudWater_EAtm_RLatLon0.09_PT067H.grib2 2026-04-19 15:00 217K
20260419T12Z_MSC_RDPS_ConvectivePrecip-Accum_Sfc_RLatLon0.09_PT067H.grib2 2026-04-19 15:00 1.3M
20260419T12Z_MSC_RDPS_DewPointDepression_AGL-2m_RLatLon0.09_PT067H.grib2 2026-04-19 15:00 393K
20260419T12Z_MSC_RDPS_DewPointDepression_IsbL-0001_RLatLon0.09_PT067H.grib2 2026-04-19 15:00 193
20260419T12Z_MSC_RDPS_DewPointDepression_IsbL-0005_RLatLon0.09_PT067H.grib2 2026-04-19 15:00 193
20260419T12Z_MSC_RDPS_DewPointDepression_IsbL-0010_RLatLon0.09_PT067H.grib2 2026-04-19 15:00 193
20260419T12Z_MSC_RDPS_DewPointDepression_IsbL-0020_RLatLon0.09_PT067H.grib2 2026-04-19 15:00 193
20260419T12Z_MSC_RDPS_DewPointDepression_IsbL-0030_RLatLon0.09_PT067H.grib2 2026-04-19 15:00 193
20260419T12Z_MSC_RDPS_DewPointDepression_IsbL-0050_RLatLon0.09_PT067H.grib2 2026-04-19 15:00 105K
20260419T12Z_MSC_RDPS_DewPointDepression_IsbL-0100_RLatLon0.09_PT067H.grib2 2026-04-19 15:00 127K
20260419T12Z_MSC_RDPS_DewPointDepression_IsbL-0150_RLatLon0.09_PT067H.grib2 2026-04-19 15:00 151K
20260419T12Z_MSC_RDPS_DewPointDepression_IsbL-0175_RLatLon0.09_PT067H.grib2 2026-04-19 15:00 191K
20260419T12Z_MSC_RDPS_DewPointDepression_IsbL-0200_RLatLon0.09_PT067H.grib2 2026-04-19 15:00 231K
20260419T12Z_MSC_RDPS_DewPointDepression_IsbL-0225_RLatLon0.09_PT067H.grib2 2026-04-19 15:00 261K
20260419T12Z_MSC_RDPS_DewPointDepression_IsbL-0250_RLatLon0.09_PT067H.grib2 2026-04-19 15:00 297K
20260419T12Z_MSC_RDPS_DewPointDepression_IsbL-0275_RLatLon0.09_PT067H.grib2 2026-04-19 15:00 305K
20260419T12Z_MSC_RDPS_DewPointDepression_IsbL-0300_RLatLon0.09_PT067H.grib2 2026-04-19 15:00 328K
20260419T12Z_MSC_RDPS_DewPointDepression_IsbL-0350_RLatLon0.09_PT067H.grib2 2026-04-19 15:00 337K
20260419T12Z_MSC_RDPS_DewPointDepression_IsbL-0400_RLatLon0.09_PT067H.grib2 2026-04-19 15:00 346K
20260419T12Z_MSC_RDPS_DewPointDepression_IsbL-0450_RLatLon0.09_PT067H.grib2 2026-04-19 15:00 354K
20260419T12Z_MSC_RDPS_DewPointDepression_IsbL-0500_RLatLon0.09_PT067H.grib2 2026-04-19 15:00 363K
20260419T12Z_MSC_RDPS_DewPointDepression_IsbL-0550_RLatLon0.09_PT067H.grib2 2026-04-19 15:00 380K
20260419T12Z_MSC_RDPS_DewPointDepression_IsbL-0600_RLatLon0.09_PT067H.grib2 2026-04-19 15:00 393K
20260419T12Z_MSC_RDPS_DewPointDepression_IsbL-0650_RLatLon0.09_PT067H.grib2 2026-04-19 15:00 392K
20260419T12Z_MSC_RDPS_DewPointDepression_IsbL-0700_RLatLon0.09_PT067H.grib2 2026-04-19 15:00 396K
20260419T12Z_MSC_RDPS_DewPointDepression_IsbL-0750_RLatLon0.09_PT067H.grib2 2026-04-19 15:00 415K
20260419T12Z_MSC_RDPS_DewPointDepression_IsbL-0800_RLatLon0.09_PT067H.grib2 2026-04-19 15:00 452K
20260419T12Z_MSC_RDPS_DewPointDepression_IsbL-0850_RLatLon0.09_PT067H.grib2 2026-04-19 15:00 466K
20260419T12Z_MSC_RDPS_DewPointDepression_IsbL-0875_RLatLon0.09_PT067H.grib2 2026-04-19 15:00 455K
20260419T12Z_MSC_RDPS_DewPointDepression_IsbL-0900_RLatLon0.09_PT067H.grib2 2026-04-19 15:00 447K
20260419T12Z_MSC_RDPS_DewPointDepression_IsbL-0925_RLatLon0.09_PT067H.grib2 2026-04-19 15:00 441K
20260419T12Z_MSC_RDPS_DewPointDepression_IsbL-0950_RLatLon0.09_PT067H.grib2 2026-04-19 15:00 440K
20260419T12Z_MSC_RDPS_DewPointDepression_IsbL-0970_RLatLon0.09_PT067H.grib2 2026-04-19 15:00 433K
20260419T12Z_MSC_RDPS_DewPointDepression_IsbL-0985_RLatLon0.09_PT067H.grib2 2026-04-19 15:00 431K
20260419T12Z_MSC_RDPS_DewPointDepression_IsbL-1000_RLatLon0.09_PT067H.grib2 2026-04-19 15:00 425K
20260419T12Z_MSC_RDPS_DewPointDepression_IsbL-1015_RLatLon0.09_PT067H.grib2 2026-04-19 15:00 416K
20260419T12Z_MSC_RDPS_DewPoint_AGL-2m_RLatLon0.09_PT067H.grib2 2026-04-19 15:00 396K
20260419T12Z_MSC_RDPS_DownwardLongwaveRadiationFlux-Accum_Sfc_RLatLon0.09_PT067H.grib2 2026-04-19 15:00 412K
20260419T12Z_MSC_RDPS_DownwardShortwaveRadiationFlux-Accum_NTAtm_RLatLon0.09_PT067H.grib2 2026-04-19 15:00 100K
20260419T12Z_MSC_RDPS_DownwardShortwaveRadiationFlux-Accum_Sfc_RLatLon0.09_PT067H.grib2 2026-04-19 15:00 601K
20260419T12Z_MSC_RDPS_FreezingRain-Accum1h_Sfc_RLatLon0.09_PT067H.grib2 2026-04-19 15:00 28K
20260419T12Z_MSC_RDPS_FreezingRain-Accum_Sfc_RLatLon0.09_PT067H.grib2 2026-04-19 15:00 149K
20260419T12Z_MSC_RDPS_GeopotentialHeight_IsbL-0001_RLatLon0.09_PT067H.grib2 2026-04-19 15:00 269K
20260419T12Z_MSC_RDPS_GeopotentialHeight_IsbL-0005_RLatLon0.09_PT067H.grib2 2026-04-19 15:00 237K
20260419T12Z_MSC_RDPS_GeopotentialHeight_IsbL-0010_RLatLon0.09_PT067H.grib2 2026-04-19 15:00 343K
20260419T12Z_MSC_RDPS_GeopotentialHeight_IsbL-0020_RLatLon0.09_PT067H.grib2 2026-04-19 15:00 311K
20260419T12Z_MSC_RDPS_GeopotentialHeight_IsbL-0030_RLatLon0.09_PT067H.grib2 2026-04-19 15:00 313K
20260419T12Z_MSC_RDPS_GeopotentialHeight_IsbL-0050_RLatLon0.09_PT067H.grib2 2026-04-19 15:00 349K
20260419T12Z_MSC_RDPS_GeopotentialHeight_IsbL-0100_RLatLon0.09_PT067H.grib2 2026-04-19 15:00 294K
20260419T12Z_MSC_RDPS_GeopotentialHeight_IsbL-0150_RLatLon0.09_PT067H.grib2 2026-04-19 15:00 234K
20260419T12Z_MSC_RDPS_GeopotentialHeight_IsbL-0175_RLatLon0.09_PT067H.grib2 2026-04-19 15:00 268K
20260419T12Z_MSC_RDPS_GeopotentialHeight_IsbL-0200_RLatLon0.09_PT067H.grib2 2026-04-19 15:00 270K
20260419T12Z_MSC_RDPS_GeopotentialHeight_IsbL-0225_RLatLon0.09_PT067H.grib2 2026-04-19 15:00 271K
20260419T12Z_MSC_RDPS_GeopotentialHeight_IsbL-0250_RLatLon0.09_PT067H.grib2 2026-04-19 15:00 272K
20260419T12Z_MSC_RDPS_GeopotentialHeight_IsbL-0275_RLatLon0.09_PT067H.grib2 2026-04-19 15:00 271K
20260419T12Z_MSC_RDPS_GeopotentialHeight_IsbL-0300_RLatLon0.09_PT067H.grib2 2026-04-19 15:00 270K
20260419T12Z_MSC_RDPS_GeopotentialHeight_IsbL-0350_RLatLon0.09_PT067H.grib2 2026-04-19 15:00 236K
20260419T12Z_MSC_RDPS_GeopotentialHeight_IsbL-0400_RLatLon0.09_PT067H.grib2 2026-04-19 15:00 233K
20260419T12Z_MSC_RDPS_GeopotentialHeight_IsbL-0450_RLatLon0.09_PT067H.grib2 2026-04-19 15:00 304K
20260419T12Z_MSC_RDPS_GeopotentialHeight_IsbL-0500_RLatLon0.09_PT067H.grib2 2026-04-19 15:00 299K
20260419T12Z_MSC_RDPS_GeopotentialHeight_IsbL-0550_RLatLon0.09_PT067H.grib2 2026-04-19 15:00 296K
20260419T12Z_MSC_RDPS_GeopotentialHeight_IsbL-0600_RLatLon0.09_PT067H.grib2 2026-04-19 15:00 292K
20260419T12Z_MSC_RDPS_GeopotentialHeight_IsbL-0650_RLatLon0.09_PT067H.grib2 2026-04-19 15:00 288K
20260419T12Z_MSC_RDPS_GeopotentialHeight_IsbL-0700_RLatLon0.09_PT067H.grib2 2026-04-19 15:00 258K
20260419T12Z_MSC_RDPS_GeopotentialHeight_IsbL-0750_RLatLon0.09_PT067H.grib2 2026-04-19 15:00 260K
20260419T12Z_MSC_RDPS_GeopotentialHeight_IsbL-0800_RLatLon0.09_PT067H.grib2 2026-04-19 15:00 266K
20260419T12Z_MSC_RDPS_GeopotentialHeight_IsbL-0850_RLatLon0.09_PT067H.grib2 2026-04-19 15:00 272K
20260419T12Z_MSC_RDPS_GeopotentialHeight_IsbL-0875_RLatLon0.09_PT067H.grib2 2026-04-19 15:00 273K
20260419T12Z_MSC_RDPS_GeopotentialHeight_IsbL-0900_RLatLon0.09_PT067H.grib2 2026-04-19 15:00 276K
20260419T12Z_MSC_RDPS_GeopotentialHeight_IsbL-0925_RLatLon0.09_PT067H.grib2 2026-04-19 15:00 279K
20260419T12Z_MSC_RDPS_GeopotentialHeight_IsbL-0950_RLatLon0.09_PT067H.grib2 2026-04-19 15:00 281K
20260419T12Z_MSC_RDPS_GeopotentialHeight_IsbL-0970_RLatLon0.09_PT067H.grib2 2026-04-19 15:00 286K
20260419T12Z_MSC_RDPS_GeopotentialHeight_IsbL-0985_RLatLon0.09_PT067H.grib2 2026-04-19 15:00 293K
20260419T12Z_MSC_RDPS_GeopotentialHeight_IsbL-1000_RLatLon0.09_PT067H.grib2 2026-04-19 15:00 303K
20260419T12Z_MSC_RDPS_GeopotentialHeight_IsbL-1015_RLatLon0.09_PT067H.grib2 2026-04-19 15:00 314K
20260419T12Z_MSC_RDPS_Humidex_Sfc_RLatLon0.09_PT067H.grib2 2026-04-19 15:00 2.4M
20260419T12Z_MSC_RDPS_IcePellets-Accum1h_Sfc_RLatLon0.09_PT067H.grib2 2026-04-19 15:00 9.6K
20260419T12Z_MSC_RDPS_IcePellets-Accum_Sfc_RLatLon0.09_PT067H.grib2 2026-04-19 15:00 32K
20260419T12Z_MSC_RDPS_KIndex_Sfc_RLatLon0.09_PT067H.grib2 2026-04-19 15:00 2.5M
20260419T12Z_MSC_RDPS_LatentHeatNetFlux_Sfc_RLatLon0.09_PT067H.grib2 2026-04-19 15:00 411K
20260419T12Z_MSC_RDPS_LiftedIndex-MU-VT_IsbL-0500_RLatLon0.09_PT067H.grib2 2026-04-19 15:00 2.4M
20260419T12Z_MSC_RDPS_NetLongwaveRadiationFlux-Accum_Sfc_RLatLon0.09_PT067H.grib2 2026-04-19 15:00 594K
20260419T12Z_MSC_RDPS_NetShortwaveRadiationFlux-Accum_Sfc_RLatLon0.09_PT067H.grib2 2026-04-19 15:00 616K
20260419T12Z_MSC_RDPS_PlanetaryBoundaryLayerHeight_Sfc_RLatLon0.09_PT067H.grib2 2026-04-19 15:00 1.1M
20260419T12Z_MSC_RDPS_Precip-Accum1h_Sfc_RLatLon0.09_PT067H.grib2 2026-04-19 15:00 1.3M
20260419T12Z_MSC_RDPS_Precip-Accum_Sfc_RLatLon0.09_PT067H.grib2 2026-04-19 15:00 2.0M
20260419T12Z_MSC_RDPS_PrecipRate_Sfc_RLatLon0.09_PT067H.grib2 2026-04-19 15:00 200K
20260419T12Z_MSC_RDPS_PrecipType-Instant_Sfc_RLatLon0.09_PT067H.grib2 2026-04-19 15:00 613K
20260419T12Z_MSC_RDPS_Pressure-Trend3h_Sfc_RLatLon0.09_PT067H.grib2 2026-04-19 15:00 1.2M
20260419T12Z_MSC_RDPS_Pressure_MSL_RLatLon0.09_PT067H.grib2 2026-04-19 15:00 327K
20260419T12Z_MSC_RDPS_Pressure_PVU-1.5_RLatLon0.09_PT067H.grib2 2026-04-19 15:00 2.3M
20260419T12Z_MSC_RDPS_Pressure_PVU-1_RLatLon0.09_PT067H.grib2 2026-04-19 15:00 2.4M
20260419T12Z_MSC_RDPS_Pressure_PVU-2_RLatLon0.09_PT067H.grib2 2026-04-19 15:00 2.4M
20260419T12Z_MSC_RDPS_Pressure_Sfc_RLatLon0.09_PT067H.grib2 2026-04-19 15:00 501K
20260419T12Z_MSC_RDPS_RadiativeTemp_Sfc_RLatLon0.09_PT067H.grib2 2026-04-19 15:00 309K
20260419T12Z_MSC_RDPS_Rain-Accum1h_Sfc_RLatLon0.09_PT067H.grib2 2026-04-19 15:00 561K
20260419T12Z_MSC_RDPS_Rain-Accum_Sfc_RLatLon0.09_PT067H.grib2 2026-04-19 15:00 1.7M
20260419T12Z_MSC_RDPS_RelativeHumidity_AGL-2m_RLatLon0.09_PT067H.grib2 2026-04-19 15:00 1.0M
20260419T12Z_MSC_RDPS_RelativeHumidity_IsbL-0010_RLatLon0.09_PT067H.grib2 2026-04-19 15:00 622K
20260419T12Z_MSC_RDPS_RelativeHumidity_IsbL-0020_RLatLon0.09_PT067H.grib2 2026-04-19 15:00 570K
20260419T12Z_MSC_RDPS_RelativeHumidity_IsbL-0030_RLatLon0.09_PT067H.grib2 2026-04-19 15:00 548K
20260419T12Z_MSC_RDPS_RelativeHumidity_IsbL-0050_RLatLon0.09_PT067H.grib2 2026-04-19 15:00 266K
20260419T12Z_MSC_RDPS_RelativeHumidity_IsbL-0100_RLatLon0.09_PT067H.grib2 2026-04-19 15:00 378K
20260419T12Z_MSC_RDPS_RelativeHumidity_IsbL-0150_RLatLon0.09_PT067H.grib2 2026-04-19 15:00 378K
20260419T12Z_MSC_RDPS_RelativeHumidity_IsbL-0175_RLatLon0.09_PT067H.grib2 2026-04-19 15:00 471K
20260419T12Z_MSC_RDPS_RelativeHumidity_IsbL-0200_RLatLon0.09_PT067H.grib2 2026-04-19 15:00 563K
20260419T12Z_MSC_RDPS_RelativeHumidity_IsbL-0225_RLatLon0.09_PT067H.grib2 2026-04-19 15:00 637K
20260419T12Z_MSC_RDPS_RelativeHumidity_IsbL-0250_RLatLon0.09_PT067H.grib2 2026-04-19 15:00 700K
20260419T12Z_MSC_RDPS_RelativeHumidity_IsbL-0275_RLatLon0.09_PT067H.grib2 2026-04-19 15:00 713K
20260419T12Z_MSC_RDPS_RelativeHumidity_IsbL-0300_RLatLon0.09_PT067H.grib2 2026-04-19 15:00 751K
20260419T12Z_MSC_RDPS_RelativeHumidity_IsbL-0350_RLatLon0.09_PT067H.grib2 2026-04-19 15:00 773K
20260419T12Z_MSC_RDPS_RelativeHumidity_IsbL-0400_RLatLon0.09_PT067H.grib2 2026-04-19 15:00 786K
20260419T12Z_MSC_RDPS_RelativeHumidity_IsbL-0450_RLatLon0.09_PT067H.grib2 2026-04-19 15:00 795K
20260419T12Z_MSC_RDPS_RelativeHumidity_IsbL-0500_RLatLon0.09_PT067H.grib2 2026-04-19 15:00 805K
20260419T12Z_MSC_RDPS_RelativeHumidity_IsbL-0550_RLatLon0.09_PT067H.grib2 2026-04-19 15:00 832K
20260419T12Z_MSC_RDPS_RelativeHumidity_IsbL-0600_RLatLon0.09_PT067H.grib2 2026-04-19 15:00 865K
20260419T12Z_MSC_RDPS_RelativeHumidity_IsbL-0650_RLatLon0.09_PT067H.grib2 2026-04-19 15:00 860K
20260419T12Z_MSC_RDPS_RelativeHumidity_IsbL-0700_RLatLon0.09_PT067H.grib2 2026-04-19 15:00 872K
20260419T12Z_MSC_RDPS_RelativeHumidity_IsbL-0750_RLatLon0.09_PT067H.grib2 2026-04-19 15:00 919K
20260419T12Z_MSC_RDPS_RelativeHumidity_IsbL-0800_RLatLon0.09_PT067H.grib2 2026-04-19 15:00 1.0M
20260419T12Z_MSC_RDPS_RelativeHumidity_IsbL-0850_RLatLon0.09_PT067H.grib2 2026-04-19 15:00 1.0M
20260419T12Z_MSC_RDPS_RelativeHumidity_IsbL-0875_RLatLon0.09_PT067H.grib2 2026-04-19 15:00 1.0M
20260419T12Z_MSC_RDPS_RelativeHumidity_IsbL-0900_RLatLon0.09_PT067H.grib2 2026-04-19 15:00 1.0M
20260419T12Z_MSC_RDPS_RelativeHumidity_IsbL-0925_RLatLon0.09_PT067H.grib2 2026-04-19 15:00 1.0M
20260419T12Z_MSC_RDPS_RelativeHumidity_IsbL-0950_RLatLon0.09_PT067H.grib2 2026-04-19 15:00 1.1M
20260419T12Z_MSC_RDPS_RelativeHumidity_IsbL-0970_RLatLon0.09_PT067H.grib2 2026-04-19 15:00 1.0M
20260419T12Z_MSC_RDPS_RelativeHumidity_IsbL-0985_RLatLon0.09_PT067H.grib2 2026-04-19 15:00 1.0M
20260419T12Z_MSC_RDPS_RelativeHumidity_IsbL-1000_RLatLon0.09_PT067H.grib2 2026-04-19 15:00 1.0M
20260419T12Z_MSC_RDPS_RelativeHumidity_IsbL-1015_RLatLon0.09_PT067H.grib2 2026-04-19 15:00 1.0M
20260419T12Z_MSC_RDPS_Runoff-Accum_Sfc_RLatLon0.09_PT067H.grib2 2026-04-19 15:00 65K
20260419T12Z_MSC_RDPS_SWEATIndex_Sfc_RLatLon0.09_PT067H.grib2 2026-04-19 15:00 2.4M
20260419T12Z_MSC_RDPS_SeeingIndex_EAtm_RLatLon0.09_PT067H.grib2 2026-04-19 15:00 1.0M
20260419T12Z_MSC_RDPS_SensibleHeatNetFlux_Sfc_RLatLon0.09_PT067H.grib2 2026-04-19 15:00 299K
20260419T12Z_MSC_RDPS_ShowalterIndex_IsbL-0500_RLatLon0.09_PT067H.grib2 2026-04-19 15:00 2.6M
20260419T12Z_MSC_RDPS_SkyTransparencyIndex_EAtm_RLatLon0.09_PT067H.grib2 2026-04-19 15:00 709K
20260419T12Z_MSC_RDPS_Snow-Accum1h_Sfc_RLatLon0.09_PT067H.grib2 2026-04-19 15:00 462K
20260419T12Z_MSC_RDPS_Snow-Accum_Sfc_RLatLon0.09_PT067H.grib2 2026-04-19 15:00 718K
20260419T12Z_MSC_RDPS_SnowDensity_Sfc_RLatLon0.09_PT067H.grib2 2026-04-19 15:00 174K
20260419T12Z_MSC_RDPS_SnowDepth_Sfc_RLatLon0.09_PT067H.grib2 2026-04-19 15:00 716K
20260419T12Z_MSC_RDPS_SoilTemp_DBS-0to10cm_RLatLon0.09_PT067H.grib2 2026-04-19 15:00 241K
20260419T12Z_MSC_RDPS_SoilTemp_Sfc_RLatLon0.09_PT067H.grib2 2026-04-19 15:00 272K
20260419T12Z_MSC_RDPS_SoilVolumetricIceContent_Sfc_RLatLon0.09_PT067H.grib2 2026-04-19 15:00 170K
20260419T12Z_MSC_RDPS_SoilVolumetricWaterContent_DBS-0to10cm_RLatLon0.09_PT067H.grib2 2026-04-19 15:00 251K
20260419T12Z_MSC_RDPS_SoilVolumetricWaterContent_DBS-0to1cm_RLatLon0.09_PT067H.grib2 2026-04-19 15:00 340K
20260419T12Z_MSC_RDPS_SpecificHumidity_AGL-120m_RLatLon0.09_PT067H.grib2 2026-04-19 15:00 479K
20260419T12Z_MSC_RDPS_SpecificHumidity_AGL-2m_RLatLon0.09_PT067H.grib2 2026-04-19 15:00 643K
20260419T12Z_MSC_RDPS_SpecificHumidity_AGL-40m_RLatLon0.09_PT067H.grib2 2026-04-19 15:00 484K
20260419T12Z_MSC_RDPS_SpecificHumidity_AGL-80m_RLatLon0.09_PT067H.grib2 2026-04-19 15:00 480K
20260419T12Z_MSC_RDPS_SpecificHumidity_IsbL-0001_RLatLon0.09_PT067H.grib2 2026-04-19 15:00 320K
20260419T12Z_MSC_RDPS_SpecificHumidity_IsbL-0005_RLatLon0.09_PT067H.grib2 2026-04-19 15:00 401K
20260419T12Z_MSC_RDPS_SpecificHumidity_IsbL-0010_RLatLon0.09_PT067H.grib2 2026-04-19 15:00 374K
20260419T12Z_MSC_RDPS_SpecificHumidity_IsbL-0020_RLatLon0.09_PT067H.grib2 2026-04-19 15:00 366K
20260419T12Z_MSC_RDPS_SpecificHumidity_IsbL-0030_RLatLon0.09_PT067H.grib2 2026-04-19 15:00 439K
20260419T12Z_MSC_RDPS_SpecificHumidity_IsbL-0050_RLatLon0.09_PT067H.grib2 2026-04-19 15:00 465K
20260419T12Z_MSC_RDPS_SpecificHumidity_IsbL-0100_RLatLon0.09_PT067H.grib2 2026-04-19 15:00 412K
20260419T12Z_MSC_RDPS_SpecificHumidity_IsbL-0150_RLatLon0.09_PT067H.grib2 2026-04-19 15:00 545K
20260419T12Z_MSC_RDPS_SpecificHumidity_IsbL-0175_RLatLon0.09_PT067H.grib2 2026-04-19 15:00 529K
20260419T12Z_MSC_RDPS_SpecificHumidity_IsbL-0200_RLatLon0.09_PT067H.grib2 2026-04-19 15:00 553K
20260419T12Z_MSC_RDPS_SpecificHumidity_IsbL-0225_RLatLon0.09_PT067H.grib2 2026-04-19 15:00 558K
20260419T12Z_MSC_RDPS_SpecificHumidity_IsbL-0250_RLatLon0.09_PT067H.grib2 2026-04-19 15:00 558K
20260419T12Z_MSC_RDPS_SpecificHumidity_IsbL-0275_RLatLon0.09_PT067H.grib2 2026-04-19 15:00 471K
20260419T12Z_MSC_RDPS_SpecificHumidity_IsbL-0300_RLatLon0.09_PT067H.grib2 2026-04-19 15:00 542K
20260419T12Z_MSC_RDPS_SpecificHumidity_IsbL-0350_RLatLon0.09_PT067H.grib2 2026-04-19 15:00 536K
20260419T12Z_MSC_RDPS_SpecificHumidity_IsbL-0400_RLatLon0.09_PT067H.grib2 2026-04-19 15:00 518K
20260419T12Z_MSC_RDPS_SpecificHumidity_IsbL-0450_RLatLon0.09_PT067H.grib2 2026-04-19 15:00 611K
20260419T12Z_MSC_RDPS_SpecificHumidity_IsbL-0500_RLatLon0.09_PT067H.grib2 2026-04-19 15:00 511K
20260419T12Z_MSC_RDPS_SpecificHumidity_IsbL-0550_RLatLon0.09_PT067H.grib2 2026-04-19 15:00 574K
20260419T12Z_MSC_RDPS_SpecificHumidity_IsbL-0600_RLatLon0.09_PT067H.grib2 2026-04-19 15:00 645K
20260419T12Z_MSC_RDPS_SpecificHumidity_IsbL-0650_RLatLon0.09_PT067H.grib2 2026-04-19 15:00 555K
20260419T12Z_MSC_RDPS_SpecificHumidity_IsbL-0700_RLatLon0.09_PT067H.grib2 2026-04-19 15:00 588K
20260419T12Z_MSC_RDPS_SpecificHumidity_IsbL-0750_RLatLon0.09_PT067H.grib2 2026-04-19 15:00 639K
20260419T12Z_MSC_RDPS_SpecificHumidity_IsbL-0800_RLatLon0.09_PT067H.grib2 2026-04-19 15:00 717K
20260419T12Z_MSC_RDPS_SpecificHumidity_IsbL-0850_RLatLon0.09_PT067H.grib2 2026-04-19 15:00 788K
20260419T12Z_MSC_RDPS_SpecificHumidity_IsbL-0875_RLatLon0.09_PT067H.grib2 2026-04-19 15:00 801K
20260419T12Z_MSC_RDPS_SpecificHumidity_IsbL-0900_RLatLon0.09_PT067H.grib2 2026-04-19 15:00 811K
20260419T12Z_MSC_RDPS_SpecificHumidity_IsbL-0925_RLatLon0.09_PT067H.grib2 2026-04-19 15:00 814K
20260419T12Z_MSC_RDPS_SpecificHumidity_IsbL-0950_RLatLon0.09_PT067H.grib2 2026-04-19 15:00 819K
20260419T12Z_MSC_RDPS_SpecificHumidity_IsbL-0970_RLatLon0.09_PT067H.grib2 2026-04-19 15:00 814K
20260419T12Z_MSC_RDPS_SpecificHumidity_IsbL-0985_RLatLon0.09_PT067H.grib2 2026-04-19 15:00 809K
20260419T12Z_MSC_RDPS_SpecificHumidity_IsbL-1000_RLatLon0.09_PT067H.grib2 2026-04-19 15:00 661K
20260419T12Z_MSC_RDPS_SpecificHumidity_IsbL-1015_RLatLon0.09_PT067H.grib2 2026-04-19 15:00 653K
20260419T12Z_MSC_RDPS_SpecificHumidity_Sfc_RLatLon0.09_PT067H.grib2 2026-04-19 15:00 290K
20260419T12Z_MSC_RDPS_StormRelativeHelicity_EtaL-10000_RLatLon0.09_PT067H.grib2 2026-04-19 15:00 1.1M
20260419T12Z_MSC_RDPS_StormSeverityIndex_EtaL-10000_RLatLon0.09_PT067H.grib2 2026-04-19 15:00 1.2M
20260419T12Z_MSC_RDPS_Thickness_IsbL-0850to0700_RLatLon0.09_PT067H.grib2 2026-04-19 15:00 180K
20260419T12Z_MSC_RDPS_Thickness_IsbL-1000to0500_RLatLon0.09_PT067H.grib2 2026-04-19 15:00 202K
20260419T12Z_MSC_RDPS_Thickness_IsbL-1000to0850_RLatLon0.09_PT067H.grib2 2026-04-19 15:00 261K
20260419T12Z_MSC_RDPS_TotalCloudCover_Sfc_RLatLon0.09_PT067H.grib2 2026-04-19 15:00 661K
20260419T12Z_MSC_RDPS_TotalTotalsIndex_Sfc_RLatLon0.09_PT067H.grib2 2026-04-19 15:00 2.5M
20260419T12Z_MSC_RDPS_UVIndex-ClearSky_Sfc_RLatLon0.09_PT067H.grib2 2026-04-19 15:00 114K
20260419T12Z_MSC_RDPS_UVIndex_Sfc_RLatLon0.09_PT067H.grib2 2026-04-19 15:00 164K
20260419T12Z_MSC_RDPS_UpwardLongwaveRadiationFlux_NTAtm_RLatLon0.09_PT067H.grib2 2026-04-19 15:00 485K
20260419T12Z_MSC_RDPS_UpwardShortwaveRadiationFlux_NTAtm_RLatLon0.09_PT067H.grib2 2026-04-19 15:00 145K
20260419T12Z_MSC_RDPS_VerticalVelocity_IsbL-0250_RLatLon0.09_PT067H.grib2 2026-04-19 15:00 593K
20260419T12Z_MSC_RDPS_VerticalVelocity_IsbL-0500_RLatLon0.09_PT067H.grib2 2026-04-19 15:00 560K
20260419T12Z_MSC_RDPS_VerticalVelocity_IsbL-0700_RLatLon0.09_PT067H.grib2 2026-04-19 15:00 609K
20260419T12Z_MSC_RDPS_VerticalVelocity_IsbL-0850_RLatLon0.09_PT067H.grib2 2026-04-19 15:00 701K
20260419T12Z_MSC_RDPS_VerticalWindShear_EtaL-6500_RLatLon0.09_PT067H.grib2 2026-04-19 15:00 1.2M
20260419T12Z_MSC_RDPS_WindChill_Sfc_RLatLon0.09_PT067H.grib2 2026-04-19 15:00 1.2M
20260419T12Z_MSC_RDPS_WindDir_AGL-10m_RLatLon0.09_PT067H.grib2 2026-04-19 15:00 1.0M
20260419T12Z_MSC_RDPS_WindDir_AGL-120m_RLatLon0.09_PT067H.grib2 2026-04-19 15:00 606K
20260419T12Z_MSC_RDPS_WindDir_AGL-40m_RLatLon0.09_PT067H.grib2 2026-04-19 15:00 640K
20260419T12Z_MSC_RDPS_WindDir_AGL-80m_RLatLon0.09_PT067H.grib2 2026-04-19 15:00 619K
20260419T12Z_MSC_RDPS_WindDir_IsbL-0001_RLatLon0.09_PT067H.grib2 2026-04-19 15:00 290K
20260419T12Z_MSC_RDPS_WindDir_IsbL-0005_RLatLon0.09_PT067H.grib2 2026-04-19 15:00 375K
20260419T12Z_MSC_RDPS_WindDir_IsbL-0010_RLatLon0.09_PT067H.grib2 2026-04-19 15:00 382K
20260419T12Z_MSC_RDPS_WindDir_IsbL-0020_RLatLon0.09_PT067H.grib2 2026-04-19 15:00 416K
20260419T12Z_MSC_RDPS_WindDir_IsbL-0030_RLatLon0.09_PT067H.grib2 2026-04-19 15:00 423K
20260419T12Z_MSC_RDPS_WindDir_IsbL-0050_RLatLon0.09_PT067H.grib2 2026-04-19 15:00 424K
20260419T12Z_MSC_RDPS_WindDir_IsbL-0100_RLatLon0.09_PT067H.grib2 2026-04-19 15:00 426K
20260419T12Z_MSC_RDPS_WindDir_IsbL-0150_RLatLon0.09_PT067H.grib2 2026-04-19 15:00 416K
20260419T12Z_MSC_RDPS_WindDir_IsbL-0175_RLatLon0.09_PT067H.grib2 2026-04-19 15:00 436K
20260419T12Z_MSC_RDPS_WindDir_IsbL-0200_RLatLon0.09_PT067H.grib2 2026-04-19 15:00 448K
20260419T12Z_MSC_RDPS_WindDir_IsbL-0225_RLatLon0.09_PT067H.grib2 2026-04-19 15:00 452K
20260419T12Z_MSC_RDPS_WindDir_IsbL-0250_RLatLon0.09_PT067H.grib2 2026-04-19 15:00 451K
20260419T12Z_MSC_RDPS_WindDir_IsbL-0275_RLatLon0.09_PT067H.grib2 2026-04-19 15:00 466K
20260419T12Z_MSC_RDPS_WindDir_IsbL-0300_RLatLon0.09_PT067H.grib2 2026-04-19 15:00 458K
20260419T12Z_MSC_RDPS_WindDir_IsbL-0350_RLatLon0.09_PT067H.grib2 2026-04-19 15:00 479K
20260419T12Z_MSC_RDPS_WindDir_IsbL-0400_RLatLon0.09_PT067H.grib2 2026-04-19 15:00 499K
20260419T12Z_MSC_RDPS_WindDir_IsbL-0450_RLatLon0.09_PT067H.grib2 2026-04-19 15:00 518K
20260419T12Z_MSC_RDPS_WindDir_IsbL-0500_RLatLon0.09_PT067H.grib2 2026-04-19 15:00 543K
20260419T12Z_MSC_RDPS_WindDir_IsbL-0550_RLatLon0.09_PT067H.grib2 2026-04-19 15:00 564K
20260419T12Z_MSC_RDPS_WindDir_IsbL-0600_RLatLon0.09_PT067H.grib2 2026-04-19 15:00 594K
20260419T12Z_MSC_RDPS_WindDir_IsbL-0650_RLatLon0.09_PT067H.grib2 2026-04-19 15:00 633K
20260419T12Z_MSC_RDPS_WindDir_IsbL-0700_RLatLon0.09_PT067H.grib2 2026-04-19 15:00 677K
20260419T12Z_MSC_RDPS_WindDir_IsbL-0750_RLatLon0.09_PT067H.grib2 2026-04-19 15:00 723K
20260419T12Z_MSC_RDPS_WindDir_IsbL-0800_RLatLon0.09_PT067H.grib2 2026-04-19 15:00 797K
20260419T12Z_MSC_RDPS_WindDir_IsbL-0850_RLatLon0.09_PT067H.grib2 2026-04-19 15:00 864K
20260419T12Z_MSC_RDPS_WindDir_IsbL-0875_RLatLon0.09_PT067H.grib2 2026-04-19 15:00 883K
20260419T12Z_MSC_RDPS_WindDir_IsbL-0900_RLatLon0.09_PT067H.grib2 2026-04-19 15:00 895K
20260419T12Z_MSC_RDPS_WindDir_IsbL-0925_RLatLon0.09_PT067H.grib2 2026-04-19 15:00 909K
20260419T12Z_MSC_RDPS_WindDir_IsbL-0950_RLatLon0.09_PT067H.grib2 2026-04-19 15:00 913K
20260419T12Z_MSC_RDPS_WindDir_IsbL-0970_RLatLon0.09_PT067H.grib2 2026-04-19 15:00 920K
20260419T12Z_MSC_RDPS_WindDir_IsbL-0985_RLatLon0.09_PT067H.grib2 2026-04-19 15:00 930K
20260419T12Z_MSC_RDPS_WindDir_IsbL-1000_RLatLon0.09_PT067H.grib2 2026-04-19 15:00 949K
20260419T12Z_MSC_RDPS_WindDir_IsbL-1015_RLatLon0.09_PT067H.grib2 2026-04-19 15:00 969K
20260419T12Z_MSC_RDPS_WindGust-Max_AGL-10m_RLatLon0.09_PT067H.grib2 2026-04-19 15:00 1.0M
20260419T12Z_MSC_RDPS_WindGust-Min_AGL-10m_RLatLon0.09_PT067H.grib2 2026-04-19 15:00 1.0M
20260419T12Z_MSC_RDPS_WindGust_AGL-10m_RLatLon0.09_PT067H.grib2 2026-04-19 15:00 1.0M
20260419T12Z_MSC_RDPS_WindSpeed_AGL-10m_RLatLon0.09_PT067H.grib2 2026-04-19 15:00 851K
20260419T12Z_MSC_RDPS_WindSpeed_AGL-120m_RLatLon0.09_PT067H.grib2 2026-04-19 15:00 549K
20260419T12Z_MSC_RDPS_WindSpeed_AGL-40m_RLatLon0.09_PT067H.grib2 2026-04-19 15:00 552K
20260419T12Z_MSC_RDPS_WindSpeed_AGL-80m_RLatLon0.09_PT067H.grib2 2026-04-19 15:00 550K
20260419T12Z_MSC_RDPS_WindSpeed_IsbL-0001_RLatLon0.09_PT067H.grib2 2026-04-19 15:00 243K
20260419T12Z_MSC_RDPS_WindSpeed_IsbL-0005_RLatLon0.09_PT067H.grib2 2026-04-19 15:00 299K
20260419T12Z_MSC_RDPS_WindSpeed_IsbL-0010_RLatLon0.09_PT067H.grib2 2026-04-19 15:00 315K
20260419T12Z_MSC_RDPS_WindSpeed_IsbL-0020_RLatLon0.09_PT067H.grib2 2026-04-19 15:00 334K
20260419T12Z_MSC_RDPS_WindSpeed_IsbL-0030_RLatLon0.09_PT067H.grib2 2026-04-19 15:00 335K
20260419T12Z_MSC_RDPS_WindSpeed_IsbL-0050_RLatLon0.09_PT067H.grib2 2026-04-19 15:00 485K
20260419T12Z_MSC_RDPS_WindSpeed_IsbL-0100_RLatLon0.09_PT067H.grib2 2026-04-19 15:00 498K
20260419T12Z_MSC_RDPS_WindSpeed_IsbL-0150_RLatLon0.09_PT067H.grib2 2026-04-19 15:00 384K
20260419T12Z_MSC_RDPS_WindSpeed_IsbL-0175_RLatLon0.09_PT067H.grib2 2026-04-19 15:00 408K
20260419T12Z_MSC_RDPS_WindSpeed_IsbL-0200_RLatLon0.09_PT067H.grib2 2026-04-19 15:00 426K
20260419T12Z_MSC_RDPS_WindSpeed_IsbL-0225_RLatLon0.09_PT067H.grib2 2026-04-19 15:00 433K
20260419T12Z_MSC_RDPS_WindSpeed_IsbL-0250_RLatLon0.09_PT067H.grib2 2026-04-19 15:00 452K
20260419T12Z_MSC_RDPS_WindSpeed_IsbL-0275_RLatLon0.09_PT067H.grib2 2026-04-19 15:00 467K
20260419T12Z_MSC_RDPS_WindSpeed_IsbL-0300_RLatLon0.09_PT067H.grib2 2026-04-19 15:00 462K
20260419T12Z_MSC_RDPS_WindSpeed_IsbL-0350_RLatLon0.09_PT067H.grib2 2026-04-19 15:00 471K
20260419T12Z_MSC_RDPS_WindSpeed_IsbL-0400_RLatLon0.09_PT067H.grib2 2026-04-19 15:00 477K
20260419T12Z_MSC_RDPS_WindSpeed_IsbL-0450_RLatLon0.09_PT067H.grib2 2026-04-19 15:00 480K
20260419T12Z_MSC_RDPS_WindSpeed_IsbL-0500_RLatLon0.09_PT067H.grib2 2026-04-19 15:00 467K
20260419T12Z_MSC_RDPS_WindSpeed_IsbL-0550_RLatLon0.09_PT067H.grib2 2026-04-19 15:00 472K
20260419T12Z_MSC_RDPS_WindSpeed_IsbL-0600_RLatLon0.09_PT067H.grib2 2026-04-19 15:00 602K
20260419T12Z_MSC_RDPS_WindSpeed_IsbL-0650_RLatLon0.09_PT067H.grib2 2026-04-19 15:00 618K
20260419T12Z_MSC_RDPS_WindSpeed_IsbL-0700_RLatLon0.09_PT067H.grib2 2026-04-19 15:00 680K
20260419T12Z_MSC_RDPS_WindSpeed_IsbL-0750_RLatLon0.09_PT067H.grib2 2026-04-19 15:00 711K
20260419T12Z_MSC_RDPS_WindSpeed_IsbL-0800_RLatLon0.09_PT067H.grib2 2026-04-19 15:00 766K
20260419T12Z_MSC_RDPS_WindSpeed_IsbL-0850_RLatLon0.09_PT067H.grib2 2026-04-19 15:00 822K
20260419T12Z_MSC_RDPS_WindSpeed_IsbL-0875_RLatLon0.09_PT067H.grib2 2026-04-19 15:00 841K
20260419T12Z_MSC_RDPS_WindSpeed_IsbL-0900_RLatLon0.09_PT067H.grib2 2026-04-19 15:00 856K
20260419T12Z_MSC_RDPS_WindSpeed_IsbL-0925_RLatLon0.09_PT067H.grib2 2026-04-19 15:00 867K
20260419T12Z_MSC_RDPS_WindSpeed_IsbL-0950_RLatLon0.09_PT067H.grib2 2026-04-19 15:00 868K
20260419T12Z_MSC_RDPS_WindSpeed_IsbL-0970_RLatLon0.09_PT067H.grib2 2026-04-19 15:00 868K
20260419T12Z_MSC_RDPS_WindSpeed_IsbL-0985_RLatLon0.09_PT067H.grib2 2026-04-19 15:00 863K
20260419T12Z_MSC_RDPS_WindSpeed_IsbL-1000_RLatLon0.09_PT067H.grib2 2026-04-19 15:00 859K
20260419T12Z_MSC_RDPS_WindSpeed_IsbL-1015_RLatLon0.09_PT067H.grib2 2026-04-19 15:00 852K
20260419T12Z_MSC_RDPS_WindU_AGL-10m_RLatLon0.09_PT067H.grib2 2026-04-19 15:00 436K
20260419T12Z_MSC_RDPS_WindU_AGL-120m_RLatLon0.09_PT067H.grib2 2026-04-19 15:00 543K
20260419T12Z_MSC_RDPS_WindU_AGL-40m_RLatLon0.09_PT067H.grib2 2026-04-19 15:00 545K
20260419T12Z_MSC_RDPS_WindU_AGL-80m_RLatLon0.09_PT067H.grib2 2026-04-19 15:00 544K
20260419T12Z_MSC_RDPS_WindU_IsbL-0001_RLatLon0.09_PT067H.grib2 2026-04-19 15:00 236K
20260419T12Z_MSC_RDPS_WindU_IsbL-0005_RLatLon0.09_PT067H.grib2 2026-04-19 15:00 334K
20260419T12Z_MSC_RDPS_WindU_IsbL-0010_RLatLon0.09_PT067H.grib2 2026-04-19 15:00 348K
20260419T12Z_MSC_RDPS_WindU_IsbL-0020_RLatLon0.09_PT067H.grib2 2026-04-19 15:00 363K
20260419T12Z_MSC_RDPS_WindU_IsbL-0030_RLatLon0.09_PT067H.grib2 2026-04-19 15:00 365K
20260419T12Z_MSC_RDPS_WindU_IsbL-0050_RLatLon0.09_PT067H.grib2 2026-04-19 15:00 371K
20260419T12Z_MSC_RDPS_WindU_IsbL-0100_RLatLon0.09_PT067H.grib2 2026-04-19 15:00 452K
20260419T12Z_MSC_RDPS_WindU_IsbL-0150_RLatLon0.09_PT067H.grib2 2026-04-19 15:00 378K
20260419T12Z_MSC_RDPS_WindU_IsbL-0175_RLatLon0.09_PT067H.grib2 2026-04-19 15:00 422K
20260419T12Z_MSC_RDPS_WindU_IsbL-0200_RLatLon0.09_PT067H.grib2 2026-04-19 15:00 440K
20260419T12Z_MSC_RDPS_WindU_IsbL-0225_RLatLon0.09_PT067H.grib2 2026-04-19 15:00 444K
20260419T12Z_MSC_RDPS_WindU_IsbL-0250_RLatLon0.09_PT067H.grib2 2026-04-19 15:00 443K
20260419T12Z_MSC_RDPS_WindU_IsbL-0275_RLatLon0.09_PT067H.grib2 2026-04-19 15:00 355K
20260419T12Z_MSC_RDPS_WindU_IsbL-0300_RLatLon0.09_PT067H.grib2 2026-04-19 15:00 350K
20260419T12Z_MSC_RDPS_WindU_IsbL-0350_RLatLon0.09_PT067H.grib2 2026-04-19 15:00 357K
20260419T12Z_MSC_RDPS_WindU_IsbL-0400_RLatLon0.09_PT067H.grib2 2026-04-19 15:00 361K
20260419T12Z_MSC_RDPS_WindU_IsbL-0450_RLatLon0.09_PT067H.grib2 2026-04-19 15:00 467K
20260419T12Z_MSC_RDPS_WindU_IsbL-0500_RLatLon0.09_PT067H.grib2 2026-04-19 15:00 472K
20260419T12Z_MSC_RDPS_WindU_IsbL-0550_RLatLon0.09_PT067H.grib2 2026-04-19 15:00 477K
20260419T12Z_MSC_RDPS_WindU_IsbL-0600_RLatLon0.09_PT067H.grib2 2026-04-19 15:00 486K
20260419T12Z_MSC_RDPS_WindU_IsbL-0650_RLatLon0.09_PT067H.grib2 2026-04-19 15:00 501K
20260419T12Z_MSC_RDPS_WindU_IsbL-0700_RLatLon0.09_PT067H.grib2 2026-04-19 15:00 517K
20260419T12Z_MSC_RDPS_WindU_IsbL-0750_RLatLon0.09_PT067H.grib2 2026-04-19 15:00 544K
20260419T12Z_MSC_RDPS_WindU_IsbL-0800_RLatLon0.09_PT067H.grib2 2026-04-19 15:00 579K
20260419T12Z_MSC_RDPS_WindU_IsbL-0850_RLatLon0.09_PT067H.grib2 2026-04-19 15:00 627K
20260419T12Z_MSC_RDPS_WindU_IsbL-0875_RLatLon0.09_PT067H.grib2 2026-04-19 15:00 644K
20260419T12Z_MSC_RDPS_WindU_IsbL-0900_RLatLon0.09_PT067H.grib2 2026-04-19 15:00 656K
20260419T12Z_MSC_RDPS_WindU_IsbL-0925_RLatLon0.09_PT067H.grib2 2026-04-19 15:00 664K
20260419T12Z_MSC_RDPS_WindU_IsbL-0950_RLatLon0.09_PT067H.grib2 2026-04-19 15:00 664K
20260419T12Z_MSC_RDPS_WindU_IsbL-0970_RLatLon0.09_PT067H.grib2 2026-04-19 15:00 661K
20260419T12Z_MSC_RDPS_WindU_IsbL-0985_RLatLon0.09_PT067H.grib2 2026-04-19 15:00 797K
20260419T12Z_MSC_RDPS_WindU_IsbL-1000_RLatLon0.09_PT067H.grib2 2026-04-19 15:00 794K
20260419T12Z_MSC_RDPS_WindU_IsbL-1015_RLatLon0.09_PT067H.grib2 2026-04-19 15:00 788K
20260419T12Z_MSC_RDPS_WindV_AGL-10m_RLatLon0.09_PT067H.grib2 2026-04-19 15:00 437K
20260419T12Z_MSC_RDPS_WindV_AGL-120m_RLatLon0.09_PT067H.grib2 2026-04-19 15:00 542K
20260419T12Z_MSC_RDPS_WindV_AGL-40m_RLatLon0.09_PT067H.grib2 2026-04-19 15:00 546K
20260419T12Z_MSC_RDPS_WindV_AGL-80m_RLatLon0.09_PT067H.grib2 2026-04-19 15:00 544K
20260419T12Z_MSC_RDPS_WindV_IsbL-0001_RLatLon0.09_PT067H.grib2 2026-04-19 15:00 287K
20260419T12Z_MSC_RDPS_WindV_IsbL-0005_RLatLon0.09_PT067H.grib2 2026-04-19 15:00 288K
20260419T12Z_MSC_RDPS_WindV_IsbL-0010_RLatLon0.09_PT067H.grib2 2026-04-19 15:00 346K
20260419T12Z_MSC_RDPS_WindV_IsbL-0020_RLatLon0.09_PT067H.grib2 2026-04-19 15:00 326K
20260419T12Z_MSC_RDPS_WindV_IsbL-0030_RLatLon0.09_PT067H.grib2 2026-04-19 15:00 367K
20260419T12Z_MSC_RDPS_WindV_IsbL-0050_RLatLon0.09_PT067H.grib2 2026-04-19 15:00 368K
20260419T12Z_MSC_RDPS_WindV_IsbL-0100_RLatLon0.09_PT067H.grib2 2026-04-19 15:00 348K
20260419T12Z_MSC_RDPS_WindV_IsbL-0150_RLatLon0.09_PT067H.grib2 2026-04-19 15:00 397K
20260419T12Z_MSC_RDPS_WindV_IsbL-0175_RLatLon0.09_PT067H.grib2 2026-04-19 15:00 420K
20260419T12Z_MSC_RDPS_WindV_IsbL-0200_RLatLon0.09_PT067H.grib2 2026-04-19 15:00 338K
20260419T12Z_MSC_RDPS_WindV_IsbL-0225_RLatLon0.09_PT067H.grib2 2026-04-19 15:00 343K
20260419T12Z_MSC_RDPS_WindV_IsbL-0250_RLatLon0.09_PT067H.grib2 2026-04-19 15:00 343K
20260419T12Z_MSC_RDPS_WindV_IsbL-0275_RLatLon0.09_PT067H.grib2 2026-04-19 15:00 378K
20260419T12Z_MSC_RDPS_WindV_IsbL-0300_RLatLon0.09_PT067H.grib2 2026-04-19 15:00 373K
20260419T12Z_MSC_RDPS_WindV_IsbL-0350_RLatLon0.09_PT067H.grib2 2026-04-19 15:00 381K
20260419T12Z_MSC_RDPS_WindV_IsbL-0400_RLatLon0.09_PT067H.grib2 2026-04-19 15:00 362K
20260419T12Z_MSC_RDPS_WindV_IsbL-0450_RLatLon0.09_PT067H.grib2 2026-04-19 15:00 468K
20260419T12Z_MSC_RDPS_WindV_IsbL-0500_RLatLon0.09_PT067H.grib2 2026-04-19 15:00 471K
20260419T12Z_MSC_RDPS_WindV_IsbL-0550_RLatLon0.09_PT067H.grib2 2026-04-19 15:00 476K
20260419T12Z_MSC_RDPS_WindV_IsbL-0600_RLatLon0.09_PT067H.grib2 2026-04-19 15:00 485K
20260419T12Z_MSC_RDPS_WindV_IsbL-0650_RLatLon0.09_PT067H.grib2 2026-04-19 15:00 499K
20260419T12Z_MSC_RDPS_WindV_IsbL-0700_RLatLon0.09_PT067H.grib2 2026-04-19 15:00 501K
20260419T12Z_MSC_RDPS_WindV_IsbL-0750_RLatLon0.09_PT067H.grib2 2026-04-19 15:00 528K
20260419T12Z_MSC_RDPS_WindV_IsbL-0800_RLatLon0.09_PT067H.grib2 2026-04-19 15:00 577K
20260419T12Z_MSC_RDPS_WindV_IsbL-0850_RLatLon0.09_PT067H.grib2 2026-04-19 15:00 627K
20260419T12Z_MSC_RDPS_WindV_IsbL-0875_RLatLon0.09_PT067H.grib2 2026-04-19 15:00 642K
20260419T12Z_MSC_RDPS_WindV_IsbL-0900_RLatLon0.09_PT067H.grib2 2026-04-19 15:00 652K
20260419T12Z_MSC_RDPS_WindV_IsbL-0925_RLatLon0.09_PT067H.grib2 2026-04-19 15:00 660K
20260419T12Z_MSC_RDPS_WindV_IsbL-0950_RLatLon0.09_PT067H.grib2 2026-04-19 15:00 661K
20260419T12Z_MSC_RDPS_WindV_IsbL-0970_RLatLon0.09_PT067H.grib2 2026-04-19 15:00 660K
20260419T12Z_MSC_RDPS_WindV_IsbL-0985_RLatLon0.09_PT067H.grib2 2026-04-19 15:00 656K
20260419T12Z_MSC_RDPS_WindV_IsbL-1000_RLatLon0.09_PT067H.grib2 2026-04-19 15:00 793K
20260419T12Z_MSC_RDPS_WindV_IsbL-1015_RLatLon0.09_PT067H.grib2 2026-04-19 15:00 789K